Погода в Королево

Украина / Закарпатская область     48°09′11″N   23°08′11″E
темп.,
°C
ветер,
м/с
пор.,
м/с
влажн.,
%
обл.,
%
осадки,
мм/ч
давл.,
гПа
погр.,
м
13 мая, чт
чт1300:00+13ю229488 0.9 100539
03:00+12ююв2399100 6.0 1004121
06:00+11ю3796100 7.3 1005519
09:00+11юв2398100 19.6 1005222
12:00+11юв2396100 3.6 1005221
15:00+14ююв138081 3.9 1004760
18:00+15ююз358494 1.8 1003872
21:00+11ююв119297 3.2 100411
14 мая, пт
пт1400:00+11юв2295100 0.4 100453
03:00+11ю2696100 0.9 1005324
06:00+10ю2798100 0.6 1005617
09:00+10ююз3798100 1.1 1006649
12:00+10ю3795100 1.2 1008886
15:00+10ююз3895100 2.3 1009798
18:00+10ююв1296100 1.1 1009123
21:00+9ююв1298100 2.4 101090
15 мая, сб
сб1500:00+9юв1298100 0.6 101175
03:00+9юв119798 0.4 101135
06:00+8вюв129774 0.1 101245
09:00+12юв1287100 0.1 1013371
12:00+15ю227253 0.4 10121039
15:00+18з126126 0.6 10111324
18:00+18ююз116120 0.0 10101057
21:00+13св22816 0.0 100911
16 мая, вс
вс1600:00+11св228634 0.0 101016
03:00+10всв2285100 0.1 101018
06:00+9в2283100 0.0 100916
09:00+14юв1278100 0.1 1010157
12:00+17ююз2477100 1.4 1009502
15:00+17ю2379100 5.7 1009364
18:00+14зюз2395100 4.4 1009115
21:00+12юз119580 6.3 101010
17 мая, пн
пн1700:00+11всв1194100 0.1 101111
03:00+11юв1196100 0.1 101111
06:00+11ююв119798 0.1 101028
09:00+13юз119382 0.3 1011221
12:00+17ю22685 0.1 10101067
15:00+19ююз22590 0.1 10081349
18:00+19юз2262100 0.0 10081040
21:00+14зюз2284100 0.4 100816